| Date | Time | Temp. (oF) | Dew Point (oF) | Rel. Hum. (%) | Press. (in.) | Wind Dir. | Wind Speed (mph) | Hourly Rainfall (in.) |
|
|---|---|---|---|---|---|---|---|---|---|
| 1 | 09/02 | 00:00 | 72 | 69 | 93 | 30.23 | ESE | 3 | 0.00 |
| 2 | 09/01 | 23:00 | 72 | 69 | 93 | 30.24 | NE | 1 | 0.00 |
| 3 | 09/01 | 22:00 | 72 | 69 | 92 | 30.23 | ENE | 3 | 0.00 |
| 4 | 09/01 | 21:00 | 73 | 69 | 90 | 30.24 | ESE | 3 | 0.00 |
| 5 | 09/01 | 20:00 | 74 | 70 | 89 | 30.22 | S | 2 | 0.00 |
| 6 | 09/01 | 19:00 | 75 | 70 | 87 | 30.20 | E | 6 | 0.00 |
| 7 | 09/01 | 18:00 | 76 | 71 | 86 | 30.21 | ESE | 2 | 0.00 |
| 8 | 09/01 | 17:00 | 78 | 72 | 82 | 30.21 | ESE | 7 | 0.00 |
| 9 | 09/01 | 16:00 | 76 | 71 | 87 | 30.22 | ESE | 5 | 0.00 |
| 10 | 09/01 | 15:00 | 75 | 71 | 88 | 30.25 | ESE | 2 | 0.00 |
| 11 | 09/01 | 14:00 | 75 | 71 | 89 | 30.26 | ESE | 2 | 0.00 |
| 12 | 09/01 | 13:00 | 74 | 70 | 90 | 30.27 | E | 3 | 0.00 |
| 13 | 09/01 | 12:00 | 73 | 70 | 93 | 30.27 | ESE | 5 | 0.00 |
| 14 | 09/01 | 11:00 | 72 | 70 | 94 | 30.27 | ENE | 5 | 0.00 |
| 15 | 09/01 | 10:00 | 71 | 69 | 94 | 30.27 | NE | 4 | 0.00 |
| 16 | 09/01 | 09:00 | 71 | 69 | 96 | 30.25 | NE | 3 | 0.00 |
| 17 | 09/01 | 08:00 | 69 | 67 | 96 | 30.26 | NE | 4 | 0.00 |
| 18 | 09/01 | 07:00 | 69 | 67 | 96 | 30.26 | NE | 4 | 0.00 |
| 19 | 09/01 | 06:00 | 69 | 67 | 96 | 30.24 | ENE | 4 | 0.00 |
| 20 | 09/01 | 05:00 | 69 | 67 | 96 | 30.23 | NE | 3 | 0.00 |
| 21 | 09/01 | 04:00 | 69 | 68 | 97 | 30.23 | ENE | 4 | 0.00 |
| 22 | 09/01 | 03:00 | 69 | 68 | 97 | 30.23 | ENE | 2 | 0.00 |
| 23 | 09/01 | 02:00 | 69 | 67 | 95 | 30.24 | NNE | 2 | 0.00 |
| 24 | 09/01 | 01:00 | 69 | 66 | 93 | 30.24 | E | 6 | 0.00 |